Meteo orario Hamove

Oggi, 2 Ottobre, Venerdi

Tempo Temperatura Precipitazioni Vento Pressione Umidità
00:00 +16°C° 0.3 mm 3 m/s 751 mm Hg 80%
01:00 +17°C° 0.3 mm 3 m/s 751 mm Hg 79%
02:00 +17°C° 0.3 mm 3 m/s 751 mm Hg 78%
03:00 +16°C° 0.1 mm 3 m/s 751 mm Hg 80%
04:00 +16°C° 0.1 mm 3 m/s 751 mm Hg 81%
05:00 +14°C° 0.1 mm 3 m/s 751 mm Hg 83%
06:00 +16°C° 0 mm 3 m/s 751 mm Hg 78%
07:00 +17°C° 0 mm 3 m/s 752 mm Hg 73%
08:00 +18°C° 0 mm 3 m/s 752 mm Hg 69%
09:00 +19°C° 0.3 mm 3 m/s 752 mm Hg 64%
10:00 +20°C° 0.3 mm 4 m/s 752 mm Hg 59%
11:00 +21°C° 0.3 mm 5 m/s 753 mm Hg 54%
12:00 +21°C° 0.1 mm 5 m/s 753 mm Hg 53%
13:00 +22°C° 0.1 mm 5 m/s 753 mm Hg 51%
14:00 +22°C° 0.1 mm 6 m/s 753 mm Hg 50%
15:00 +21°C° 0 mm 5 m/s 753 mm Hg 53%
16:00 +20°C° 0 mm 5 m/s 753 mm Hg 56%
17:00 +20°C° 0 mm 5 m/s 754 mm Hg 59%
18:00 +19°C° 0 mm 4 m/s 754 mm Hg 65%
19:00 +18°C° 0 mm 4 m/s 754 mm Hg 71%
20:00 +18°C° 0 mm 3 m/s 755 mm Hg 77%
21:00 +17°C° 0 mm 3 m/s 755 mm Hg 78%
22:00 +17°C° 0 mm 2 m/s 755 mm Hg 80%
23:00 +17°C° 0 mm 2 m/s 755 mm Hg 81%

Domani, 3 Ottobre, Sabato

Tempo Temperatura Precipitazioni Vento Pressione Umidità
00:00 +17°C° 0 mm 2 m/s 756 mm Hg 82%
01:00 +17°C° 0 mm 2 m/s 756 mm Hg 83%
02:00 +16°C° 0 mm 2 m/s 756 mm Hg 84%
03:00 +16°C° 0 mm 2 m/s 756 mm Hg 85%
04:00 +16°C° 0 mm 3 m/s 756 mm Hg 85%
05:00 +16°C° 0 mm 3 m/s 756 mm Hg 85%
06:00 +18°C° 0 mm 3 m/s 756 mm Hg 80%
07:00 +19°C° 0 mm 4 m/s 757 mm Hg 75%
08:00 +20°C° 0 mm 4 m/s 757 mm Hg 70%
09:00 +22°C° 0 mm 5 m/s 757 mm Hg 63%
10:00 +23°C° 0 mm 5 m/s 757 mm Hg 56%
11:00 +24°C° 0 mm 6 m/s 757 mm Hg 48%
12:00 +24°C° 0 mm 6 m/s 757 mm Hg 49%
13:00 +24°C° 0 mm 6 m/s 757 mm Hg 49%
14:00 +24°C° 0 mm 6 m/s 757 mm Hg 49%
15:00 +24°C° 0 mm 6 m/s 757 mm Hg 54%
16:00 +23°C° 0 mm 5 m/s 757 mm Hg 58%
17:00 +22°C° 0 mm 5 m/s 757 mm Hg 63%
18:00 +21°C° 0 mm 4 m/s 758 mm Hg 68%
19:00 +20°C° 0 mm 4 m/s 758 mm Hg 74%
20:00 +19°C° 0 mm 3 m/s 758 mm Hg 79%
21:00 +19°C° 0 mm 3 m/s 758 mm Hg 81%
22:00 +18°C° 0 mm 3 m/s 758 mm Hg 83%
23:00 +18°C° 0 mm 3 m/s 758 mm Hg 85%

Dopodomani, 4 Ottobre, Domenica

Tempo Temperatura Precipitazioni Vento Pressione Umidità
00:00 +18°C° 0 mm 3 m/s 758 mm Hg 85%
01:00 +17°C° 0 mm 3 m/s 759 mm Hg 84%
02:00 +17°C° 0 mm 3 m/s 759 mm Hg 84%
03:00 +17°C° 0 mm 3 m/s 759 mm Hg 86%
04:00 +16°C° 0 mm 3 m/s 759 mm Hg 89%
05:00 +16°C° 0 mm 3 m/s 759 mm Hg 91%
06:00 +17°C° 0 mm 4 m/s 759 mm Hg 87%
07:00 +18°C° 0 mm 4 m/s 759 mm Hg 83%
08:00 +19°C° 0 mm 5 m/s 759 mm Hg 79%
09:00 +20°C° 0 mm 5 m/s 759 mm Hg 71%
10:00 +22°C° 0 mm 5 m/s 759 mm Hg 62%
11:00 +25°C° 0 mm 5 m/s 759 mm Hg 53%
12:00 +25°C° 0 mm 5 m/s 759 mm Hg 50%
13:00 +26°C° 0 mm 5 m/s 759 mm Hg 48%
14:00 +26°C° 0 mm 5 m/s 759 mm Hg 45%
15:00 +25°C° 0 mm 4 m/s 759 mm Hg 49%
16:00 +23°C° 0 mm 4 m/s 759 mm Hg 52%
17:00 +22°C° 0 mm 3 m/s 759 mm Hg 56%
18:00 +21°C° 0 mm 3 m/s 760 mm Hg 62%
19:00 +20°C° 0 mm 3 m/s 760 mm Hg 67%
20:00 +19°C° 0 mm 3 m/s 760 mm Hg 73%
21:00 +18°C° 0 mm 4 m/s 760 mm Hg 71%
22:00 +18°C° 0 mm 4 m/s 760 mm Hg 70%
23:00 +17°C° 0 mm 5 m/s 760 mm Hg 68%

5 Ottobre, Lunedi

Tempo Temperatura Precipitazioni Vento Pressione Umidità
00:00 +17°C° 0 mm 4 m/s 760 mm Hg 71%
01:00 +15°C° 0 mm 4 m/s 760 mm Hg 75%
02:00 +16°C° 0 mm 3 m/s 760 mm Hg 78%
03:00 +16°C° 0 mm 3 m/s 760 mm Hg 79%
04:00 +14°C° 0 mm 3 m/s 761 mm Hg 79%
05:00 +14°C° 0 mm 3 m/s 761 mm Hg 79%
06:00 +15°C° 0 mm 4 m/s 761 mm Hg 68%
07:00 +16°C° 0 mm 5 m/s 761 mm Hg 58%
08:00 +17°C° 0 mm 6 m/s 761 mm Hg 47%
09:00 +19°C° 0 mm 6 m/s 761 mm Hg 44%
10:00 +21°C° 0 mm 6 m/s 761 mm Hg 41%
11:00 +22°C° 0 mm 7 m/s 761 mm Hg 37%
12:00 +23°C° 0 mm 7 m/s 761 mm Hg 37%
13:00 +23°C° 0 mm 7 m/s 761 mm Hg 37%
14:00 +24°C° 0 mm 7 m/s 761 mm Hg 37%
15:00 +23°C° 0 mm 6 m/s 761 mm Hg 37%
16:00 +22°C° 0 mm 6 m/s 761 mm Hg 38%
17:00 +21°C° 0 mm 5 m/s 760 mm Hg 39%
18:00 +20°C° 0 mm 5 m/s 761 mm Hg 42%
19:00 +19°C° 0 mm 5 m/s 761 mm Hg 45%
20:00 +17°C° 0 mm 5 m/s 761 mm Hg 48%
21:00 +17°C° 0 mm 5 m/s 761 mm Hg 51%
22:00 +16°C° 0 mm 5 m/s 761 mm Hg 54%
23:00 +17°C° 0 mm 4 m/s 761 mm Hg 57%

6 Ottobre, Martedi

Tempo Temperatura Precipitazioni Vento Pressione Umidità
00:00 +15°C° 0 mm 4 m/s 761 mm Hg 57%
01:00 +15°C° 0 mm 4 m/s 760 mm Hg 57%
02:00 +14°C° 0 mm 4 m/s 760 mm Hg 56%
03:00 +14°C° 0 mm 4 m/s 760 mm Hg 58%
04:00 +14°C° 0 mm 4 m/s 760 mm Hg 59%
05:00 +14°C° 0 mm 4 m/s 760 mm Hg 60%
06:00 +15°C° 0 mm 5 m/s 760 mm Hg 57%
07:00 +16°C° 0 mm 5 m/s 760 mm Hg 53%
08:00 +17°C° 0 mm 6 m/s 760 mm Hg 49%
09:00 +20°C° 0 mm 7 m/s 760 mm Hg 45%
10:00 +21°C° 0 mm 7 m/s 760 mm Hg 40%
11:00 +23°C° 0 mm 7 m/s 759 mm Hg 36%
12:00 +23°C° 0 mm 7 m/s 759 mm Hg 35%
13:00 +24°C° 0 mm 7 m/s 759 mm Hg 34%
14:00 +26°C° 0 mm 7 m/s 758 mm Hg 32%
15:00 +24°C° 0 mm 7 m/s 758 mm Hg 36%
16:00 +22°C° 0 mm 7 m/s 758 mm Hg 39%
17:00 +21°C° 0 mm 6 m/s 758 mm Hg 42%
18:00 +20°C° 0 mm 6 m/s 758 mm Hg 45%
19:00 +19°C° 0 mm 6 m/s 758 mm Hg 48%
20:00 +17°C° 0 mm 6 m/s 758 mm Hg 52%
21:00 +16°C° 0 mm 5 m/s 758 mm Hg 51%
22:00 +16°C° 0 mm 5 m/s 758 mm Hg 50%
23:00 +15°C° 0 mm 4 m/s 757 mm Hg 50%

7 Ottobre, Mercoledi

Tempo Temperatura Precipitazioni Vento Pressione Umidità
00:00 +15°C° 0 mm 4 m/s 757 mm Hg 51%
01:00 +15°C° 0 mm 4 m/s 757 mm Hg 53%
02:00 +14°C° 0 mm 4 m/s 757 mm Hg 55%
03:00 +14°C° 0 mm 4 m/s 757 mm Hg 58%
04:00 +14°C° 0 mm 4 m/s 757 mm Hg 61%
05:00 +14°C° 0 mm 4 m/s 757 mm Hg 64%
06:00 +15°C° 0 mm 5 m/s 757 mm Hg 61%
07:00 +16°C° 0 mm 6 m/s 757 mm Hg 57%
08:00 +17°C° 0 mm 6 m/s 757 mm Hg 53%
09:00 +19°C° 0 mm 6 m/s 757 mm Hg 48%
10:00 +21°C° 0 mm 6 m/s 757 mm Hg 43%
11:00 +22°C° 0 mm 6 m/s 757 mm Hg 38%
12:00 +23°C° 0 mm 6 m/s 757 mm Hg 36%
13:00 +24°C° 0 mm 7 m/s 757 mm Hg 34%
14:00 +26°C° 0 mm 7 m/s 756 mm Hg 31%
15:00 +24°C° 0 mm 6 m/s 756 mm Hg 35%
16:00 +23°C° 0 mm 6 m/s 756 mm Hg 39%
17:00 +21°C° 0 mm 5 m/s 756 mm Hg 42%
18:00 +20°C° 0 mm 5 m/s 756 mm Hg 45%
19:00 +19°C° 0 mm 5 m/s 757 mm Hg 48%
20:00 +16°C° 0 mm 5 m/s 757 mm Hg 51%
21:00 +17°C° 0 mm 4 m/s 757 mm Hg 51%
22:00 +15°C° 0 mm 4 m/s 757 mm Hg 51%
23:00 +15°C° 0 mm 4 m/s 757 mm Hg 51%
Mostrare altro